Overview Statistics Trail Chart Weather Telemetry Raw packets
 

This is the latest recevied weather packets stored in our database for station/object W4UWO. If no packets are shown the sender has not sent any weather packets the latest 10 day(s).

<< 94 95 96 97 98 99 100 >>
Time Temp. Humidity Pressure Rain* Wind** Luminosity Snow
1787920257 22.22° C 82% 1019.5 hPa 0 mm - 94 W/m² -
1787919950 22.22° C 82% 1019.4 hPa 0 mm - 66 W/m² -
1787919649 22.22° C 83% 1019.1 hPa 0 mm - 60 W/m² -
1787919345 21.67° C 83% 1019.3 hPa 0 mm - 72 W/m² -
1787919041 21.67° C 84% 1019.3 hPa 0 mm - 67 W/m² -
1787918735 21.11° C 87% 1019.2 hPa 0 mm - 59 W/m² -
1787918435 20.56° C 89% 1019.3 hPa 0 mm - 41 W/m² -
1787918128 20° C 90% 1019.1 hPa 0 mm - 37 W/m² -
1787917827 20° C 90% 1018.9 hPa 0 mm - 32 W/m² -
1787917524 20° C 90% 1018.9 hPa 0 mm - 24 W/m² -
1787917220 20° C 89% 1018.9 hPa 0 mm - 19 W/m² -
1787916920 20° C 90% 1018.5 hPa 0 mm - 14 W/m² -
1787916620 20° C 89% 1018.5 hPa 0 mm - 10 W/m² -
1787916314 20° C 90% 1018.7 hPa 0 mm - 7 W/m² -
1787916009 20° C 91% 1018.5 hPa 0 mm - 4 W/m² -
1787915705 19.44° C 93% 1018.7 hPa 0 mm - 2 W/m² -
1787915403 19.44° C 93% 1018.4 hPa 0 mm - 1 W/m² -
1787915100 19.44° C 93% 1018.5 hPa 0 mm - 1 W/m² -
1787914799 20° C 92% 1018.4 hPa 0 mm - 0 W/m² -
1787914498 20° C 91% 1018.4 hPa 0 mm - 0 W/m² -
1787914194 20° C 90% 1018.3 hPa 0 mm - 0 W/m² -
1787913894 20° C 90% 1018.4 hPa 0 mm - 0 W/m² -
1787913593 20° C 91% 1018.3 hPa 0 mm - 0 W/m² -
1787913292 19.44° C 93% 1018.2 hPa 0 mm - 0 W/m² -
1787912992 20° C 93% 1018.3 hPa 0 mm - 0 W/m² -

* Rain latest hour (hover to see other rain measurements)
** Current wind speed in m/s (hover to see current wind gust speed)